Total_Precipitation_Accumulation
1.04 0.88 1.38 1.35 1.11 0.98 0.95 0.94 0.93 0.97 0.96 0.85 0.75 0.64 0.53 0.49 0.44 0.43 0.44 0.43 0.40 0.39 0.42 0.44 0.44 0.47 0.41 0.41 0.47 0.56 0.68 0.72 0.65 0.62 0.68 0.74 0.74 0.82 1.07 1.23 1.30 1.42 1.31
0.71 0.76 1.28 1.28 1.10 0.99 0.98 1.00 0.99 0.97 0.90 0.82 0.74 0.61 0.56 0.49 0.48 0.46 0.39 0.39 0.36 0.37 0.41 0.43 0.48 0.48 0.43 0.45 0.54 0.65 0.74 0.75 0.70 0.71 0.87 0.95 0.94 0.97 1.06 1.18 1.28 1.34 1.30
0.70 0.71 0.96 1.19 1.14 1.05 0.99 0.95 0.96 0.95 0.90 0.89 0.81 0.68 0.62 0.54 0.48 0.45 0.39 0.35 0.35 0.37 0.44 0.46 0.49 0.46 0.46 0.50 0.58 0.67 0.68 0.76 0.83 0.93 1.22 1.60 1.27 1.05 1.00 1.08 1.07 1.08 1.16
0.66 0.70 0.93 1.24 1.21 1.13 1.08 1.08 1.07 0.97 0.90 0.90 0.82 0.74 0.67 0.62 0.55 0.56 0.55 0.43 0.41 0.43 0.45 0.42 0.41 0.44 0.51 0.57 0.60 0.60 0.63 0.81 0.98 1.04 1.23 1.49 1.47 1.19 1.11 1.21 1.17 1.08 1.12
0.68 0.69 1.02 1.32 1.23 1.13 1.15 1.24 1.21 1.11 0.98 0.90 0.84 0.81 0.75 0.69 0.68 0.73 0.64 0.57 0.55 0.54 0.55 0.56 0.52 0.52 0.61 0.65 0.65 0.63 0.73 0.93 1.03 0.95 1.06 1.25 1.71 1.51 1.20 1.29 1.30 1.16 1.12
0.57 0.60 0.94 1.33 1.23 1.13 1.14 1.27 1.19 1.07 1.05 0.97 0.94 0.90 0.87 0.82 0.83 0.83 0.76 0.72 0.67 0.64 0.64 0.65 0.64 0.63 0.67 0.68 0.69 0.75 0.91 1.01 0.94 1.09 1.18 1.27 1.62 1.54 1.20 1.14 1.11 1.09 1.13
0.57 0.57 0.79 1.19 1.18 1.07 1.07 1.15 1.12 1.07 1.10 0.99 0.93 0.93 0.93 0.92 0.93 0.99 0.93 0.84 0.81 0.78 0.76 0.75 0.70 0.63 0.64 0.71 0.74 0.82 0.98 0.93 0.91 1.21 1.20 1.40 1.47 1.37 1.11 1.04 1.02 1.09 1.24
0.69 0.57 0.66 1.00 1.04 0.99 1.03 1.08 1.08 1.04 0.99 0.87 0.88 0.93 0.94 0.93 0.99 1.03 1.01 0.93 0.91 0.87 0.88 0.87 0.83 0.74 0.72 0.74 0.80 0.85 0.95 0.85 0.74 0.97 1.12 1.37 1.55 1.45 1.10 1.02 1.07 1.10 1.31
1.03 0.86 0.77 0.79 0.81 0.88 0.98 1.01 1.15 1.17 0.99 0.85 0.83 0.82 0.81 0.82 0.86 0.92 0.95 0.90 0.87 0.90 0.90 0.90 0.89 0.85 0.85 0.82 0.82 0.85 0.92 0.91 0.83 0.88 0.89 1.27 1.53 1.44 1.17 1.07 1.05 1.09 1.29
1.02 0.98 0.91 0.91 0.86 0.85 0.87 1.04 1.31 1.41 1.23 0.97 0.86 0.81 0.81 0.76 0.75 0.82 0.80 0.83 0.89 0.96 0.98 1.00 0.98 0.91 0.97 0.97 0.94 0.91 0.93 0.80 0.68 0.72 0.87 1.11 1.52 1.48 1.29 1.09 0.97 0.92 1.08
0.92 0.92 0.87 0.89 0.92 1.03 1.03 1.10 1.36 1.51 1.48 1.11 0.91 0.89 0.79 0.62 0.74 0.79 0.67 0.85 0.97 1.07 1.08 1.10 1.05 0.99 1.04 1.03 1.03 1.03 0.83 0.60 0.61 0.72 0.90 1.22 1.64 1.66 1.37 1.13 1.01 0.92 0.88
0.78 0.76 0.75 0.76 0.75 0.81 0.87 1.19 1.41 1.32 1.39 1.11 1.06 0.98 0.88 0.90 0.93 0.80 0.71 0.86 1.03 1.14 1.11 1.12 1.13 1.08 0.96 0.81 0.81 0.83 0.61 0.49 0.52 0.60 0.81 1.25 1.72 1.85 1.55 1.26 1.05 0.92 0.86
0.62 0.53 0.48 0.53 0.53 0.58 0.68 0.85 1.14 1.40 1.44 1.41 1.34 1.25 1.17 1.07 0.89 0.79 0.77 0.78 0.88 0.98 0.95 1.03 1.03 0.90 0.84 0.78 0.77 0.67 0.57 0.51 0.55 0.58 0.85 1.25 1.66 1.83 1.63 1.30 1.05 0.94 0.99
0.59 0.58 0.48 0.42 0.46 0.46 0.50 0.64 0.89 1.11 1.26 1.28 1.19 1.10 1.28 1.21 0.97 0.87 0.94 0.94 0.93 0.97 1.11 1.16 1.09 0.99 0.89 0.81 0.79 0.70 0.65 0.64 0.62 0.66 0.95 1.06 1.36 1.65 1.77 1.54 1.24 1.04 1.03
0.58 0.63 0.56 0.43 0.37 0.42 0.45 0.51 0.60 0.84 1.00 1.00 1.13 1.09 1.13 1.11 0.98 0.90 0.91 1.06 1.01 1.02 1.15 1.26 1.12 1.02 1.03 0.98 0.93 0.89 0.84 0.77 0.77 0.71 0.85 0.95 1.11 1.44 1.86 1.84 1.54 1.19 1.16
0.51 0.53 0.54 0.49 0.47 0.46 0.44 0.44 0.49 0.54 0.71 0.74 0.75 0.74 0.94 1.04 1.03 1.05 0.95 1.03 1.17 1.20 1.18 1.18 1.15 1.05 1.01 1.04 0.99 1.01 0.99 0.83 0.81 0.82 0.88 0.88 0.89 1.09 1.55 1.86 1.68 1.42 1.39
0.44 0.44 0.48 0.54 0.59 0.57 0.57 0.57 0.54 0.55 0.58 0.65 0.72 0.73 0.86 0.96 1.04 1.05 0.93 0.97 1.12 1.31 1.28 1.20 1.14 1.11 0.96 0.92 0.99 1.06 1.07 0.95 0.92 0.98 0.95 0.92 0.83 0.92 1.23 1.68 1.80 1.64 1.61
0.35 0.33 0.39 0.45 0.52 0.58 0.62 0.66 0.62 0.66 0.67 0.65 0.70 0.68 0.73 0.89 1.05 1.13 1.05 1.00 1.15 1.34 1.49 1.52 1.35 1.25 1.13 1.05 1.10 1.11 1.06 1.10 1.07 1.03 1.01 1.05 1.02 0.90 0.97 1.21 1.51 1.78 1.84
0.28 0.26 0.29 0.34 0.41 0.48 0.57 0.65 0.67 0.69 0.83 0.91 0.79 0.66 0.73 0.86 0.97 1.18 1.26 1.21 1.24 1.40 1.46 1.47 1.46 1.32 1.30 1.25 1.13 1.08 1.03 1.11 1.18 1.02 1.00 1.07 1.17 1.11 1.02 0.87 0.94 1.16 1.49
0.24 0.23 0.25 0.31 0.33 0.36 0.47 0.64 0.73 0.70 0.80 1.01 1.05 1.02 1.06 1.13 1.19 1.34 1.43 1.43 1.43 1.49 1.47 1.58 1.74 1.54 1.37 1.37 1.25 1.12 1.05 1.07 1.10 1.10 1.10 1.10 1.18 1.18 1.10 0.93 0.86 0.70 0.90
0.18 0.19 0.24 0.29 0.32 0.34 0.42 0.53 0.62 0.72 0.90 1.11 1.17 1.22 1.36 1.39 1.41 1.55 1.66 1.69 1.62 1.53 1.58 1.75 2.10 1.98 1.62 1.46 1.48 1.36 1.20 1.14 1.17 1.13 1.15 1.24 1.18 1.14 1.21 1.11 0.93 0.86 0.75
0.11 0.12 0.18 0.27 0.36 0.42 0.48 0.62 0.77 1.00 1.11 1.26 1.41 1.39 1.42 1.47 1.51 1.59 1.80 1.91 1.84 1.81 1.92 1.94 2.16 2.29 2.03 1.81 1.79 1.96 1.75 1.54 1.21 0.98 1.03 1.09 1.12 1.20 1.20 1.24 1.14 1.00 0.95
0.10 0.11 0.18 0.32 0.51 0.72 0.82 1.05 1.33 1.58 1.66 1.59 1.58 1.62 1.61 1.64 1.70 1.68 1.80 2.01 1.97 1.92 1.96 2.14 2.41 2.68 2.58 2.33 2.12 2.23 1.98 1.75 1.63 1.14 0.92 0.98 1.07 1.19 1.23 1.32 1.31 1.19 1.12
0.15 0.23 0.38 0.62 0.92 1.17 1.32 1.52 1.72 1.84 1.88 1.81 1.82 1.80 1.78 1.70 1.64 1.63 1.75 1.96 2.10 2.17 2.22 2.28 2.29 2.60 2.80 2.63 2.52 2.22 1.94 1.81 1.90 1.65 1.18 0.95 1.01 1.07 1.14 1.18 1.29 1.32 1.28
0.43 0.62 0.89 1.15 1.39 1.53 1.59 1.68 1.88 2.04 2.19 2.21 2.09 1.94 1.83 1.79 1.72 1.63 1.68 1.76 1.80 1.88 1.99 2.12 2.21 2.41 2.55 2.69 2.67 2.48 2.24 2.09 1.66 1.63 1.62 1.37 1.13 0.94 0.98 1.11 1.30 1.35 1.34
0.87 1.04 1.24 1.39 1.53 1.52 1.52 1.58 1.71 1.90 2.06 2.09 2.10 2.07 1.94 1.80 1.70 1.61 1.55 1.65 1.68 1.68 1.81 1.92 2.02 2.24 2.40 2.52 2.59 2.48 2.34 2.27 2.02 1.76 1.59 1.56 1.45 1.15 0.98 1.00 1.10 1.21 1.28